DECAYED

STARLINK-4379, 53217 (Decayed)

Orbit data source: Space-Track

STARLINK-4379, 53217 was a payload satellite owned by SpaceX/Seattle (US) in LEO that was launched on Fri, 22 Jul 2022 UTC via an FALCON 9 launch vehicle from the Air Force Western Test Range (AFWTR). Payload-class satellites include a variety of spacecraft equipped with specific instruments for various scientific and technological missions. These include communications satellites like Starlink; space stations such as the ISS; scientific satellites like the Hubble; Earth observation satellites from companies like Planet Labs, Umbra, and HawkEye 360; GPS; miniature CubeSats for education and research; and military/defense satellites.

Not visible in the next 10 days
Identifier
53217, 2022-084AE
Orbit
Decayed
Country
Flag of USUS
Related business
Manufacturer
SpaceX/Seattle
Mission
Decayed Commercial Communications
Bus & Motor
STARLINK, Unknown motor
Mass
297 kg wet, ~275 kg dry
Launch date (UTC)
2022-07-22 (4 years ago)
Launch vehicle
FALCON 9
Launch site
Air Force Western Test Range (AFWTR)
Object type
Payload
Rocket body
Debris
Shape & HBR
Box + 1 Pan, 10.1 m
Radar Cross Section
13.562 m², Large (>1 m²)

Expand to show TLE details & history
Last TLE update: 1 year ago

TLE from 1 year ago
0 STARLINK-4379
1 53217U 22084AE  25152.65826145  .13036105  27361-5  16208-3 0  9999
2 53217  97.6272 221.1825 0016343 250.0433 270.5082 16.48676139157949
Epoch: 2025-06-01T15:47Z
TLE epoch observation values (Epoch: 2025-06-01T15:47:53.789Z)
Latitude
19.45558°
Longitude
-83.4771°
Altitude
145.511 km
Speed
7.821 km/s
True Right ascension
02h 55m 30s
True Declination
19° 20' 16"
Sunlit
Object was in daylight at epoch
Visualization orbit readout
Latitude
Unknown
Longitude
Unknown
Altitude
Unknown
Speed
Unknown
Apparent Right ascension
Unknown
Apparent Declination
Unknown
Sunlit
N/A
Visualization observer readout
Local Sidereal Time
21:32:46
Azimuth
Unknown
Elevation
Unknown
Doppler factor
Unknown
Orbital elements
Apogee altitude
150.283 km
Perigee altitude
128.979 km
Semi-major axis
6,517.768 km
Eccentricity
0.00163
Inclination
97.6272°
RAAN
221.1825°
Arg. of periapsis
250.0433°
True anomaly
270.32093°
Mean anomaly
270.5082°
Eccentric anomaly
270.41456°
Mean motion
4.12472 °/min
Orbital period
87.28 mins
BSTAR
0.00016208
Loading maneuver chart data...
Computing Atmospheric mass density...
Loading historical data...
Loading historical data...
Loading historical data...
Loading historical data...
Loading historical data...
Loading historical data...
Loading historical data...

Documentation

Showing up to 5 results
|